Location: Knowlton
(51.2333°N, 1.2667°E)
Time: 05:01:38
(UTC+00:00)

ATLAS 3B R/B - Pass Details

Date: 18 April 2021
Orbit: 1006 x 1189 km, 63.8° (Epoch: 21 April)

Event Time Altitude Azimuth Distance (km) Brightness Sun altitude
Rises 20:38:05 0° 315° (NW) 3,879 7.6 -14.6°
Reaches altitude 10° 20:40:45 10° 310° (NW) 2,946 6.4 -14.9°
Maximum altitude 20:47:27 50° 238° (WSW) 1,406 3.4 -15.7°
Enters shadow 20:53:12 16° 169° (S) 2,650 4.3 -16.4°
